[[{"header":{"parameterUnit":"m.s-1","parameterCategory":1,"la1":30.2991,"la2":30.254,"lo1":-89.0895,"lo2":-89.0444,"dy":0.0017,"dx":0.0017,"nx":28,"ny":28,"refTime":"2023-10-07T03:00:00:Z","depth":0,"parameterNumber":2,"parameterNumberName":"U-component_of_WINDS"},"data":[0,0,0,0,0,0,0,0,0,0,0,0,0,0,0,0,0,0,0,0,0,0,0,0,0,0,0,0,0,0,0,0,0,0,0,0,0,0,0,0,0,0,0,0,0,0,0,0,0,0,0,0,0,0,0,0,0,0,-0.7432,-0.7433,0,-0.7501,-0.7501,-0.7502,-0.7481,-0.748,-0.7478,-0.7477,-0.7549,-0.7552,-0.7556,0,0,0,0,0,0,0,0,0,0,0,0,0,-0.7284,-0.7287,-0.7432,-0.7433,-0.7434,-0.75,-0.7501,-0.7502,-0.7481,-0.748,-0.7478,-0.7476,-0.7548,-0.7552,-0.7556,0,0,0,0,0,0,0,0,0,0,0,0,0,-0.735,-0.7288,-0.7432,-0.7431,-0.7432,-0.75,-0.7501,-0.7503,-0.7482,-0.748,-0.7477,-0.7475,-0.7547,-0.7552,-0.7556,-0.763,0,0,-0.7571,-0.7573,0,0,0,0,0,0,0,0,-0.7346,-0.7355,-0.743,-0.7431,-0.7432,-0.748,-0.7476,-0.7545,-0.7482,-0.7463,-0.7477,-0.7474,-0.7528,-0.7534,-0.7552,-0.7633,-0.7637,-0.7572,-0.7575,-0.7577,-0.7578,0,0,0,0,0,0,0,-0.7342,-0.7352,-0.7459,-0.7431,-0.7433,-0.7428,-0.7435,-0.7489,-0.7507,-0.7464,-0.7463,-0.7471,-0.7528,-0.7547,-0.7554,-0.7638,-0.7572,-0.7576,-0.7579,-0.7581,-0.7783,-0.7786,0,0,0,0,0,0,-0.7336,-0.7349,-0.7457,-0.7461,-0.7383,-0.7432,-0.744,-0.7467,-0.7506,-0.751,-0.7473,-0.747,-0.754,-0.7548,-0.7556,-0.7646,-0.7577,-0.7581,-0.7584,-0.7781,-0.7784,-0.7787,0,0,0,0,0,0,-0.7333,-0.7346,-0.7454,-0.7405,-0.7418,-0.7437,-0.7467,-0.7469,-0.7489,-0.7513,-0.7516,-0.7489,-0.7539,-0.7549,-0.7612,-0.7648,-0.7584,-0.7588,-0.7778,-0.7782,-0.7785,-0.7825,0,0,0,0,0,0,-0.7329,-0.7345,-0.7373,-0.7405,-0.7421,-0.7509,-0.747,-0.7472,-0.7497,-0.7494,-0.7529,-0.7533,-0.7538,-0.7605,-0.7617,-0.7654,-0.7592,-0.7775,-0.778,-0.7784,-0.7821,-0.783,-0.7837,0,0,0,0,0,-0.7324,-0.7382,-0.7375,-0.7388,-0.7456,-0.7511,-0.7519,-0.7524,-0.75,-0.7529,-0.7544,-0.7532,-0.7641,-0.7611,-0.7625,-0.7663,-0.7773,-0.7778,-0.7784,-0.7817,-0.7828,-0.7837,0,0,0,0,0,0,-0.7355,-0.7386,-0.7379,-0.7449,-0.7477,-0.7507,-0.7543,-0.7535,-0.7571,-0.7567,-0.757,-0.7579,-0.7643,-0.7659,-0.7625,-0.7737,-0.7704,-0.7712,-0.7725,-0.7735,-0.7743,-0.7739,-0.7596,0,0,0,0,0,-0.7369,-0.7411,-0.7436,-0.7496,-0.751,-0.7524,-0.7548,-0.7549,-0.7578,-0.7591,-0.7611,-0.764,-0.7682,-0.7709,-0.7748,-0.7822,-0.783,-0.7856,-0.7864,-0.787,-0.7878,-0.7919,-0.7931,-0.7805,-0.7804,-0.7804,0,0,-0.7401,-0.7423,-0.7449,-0.7502,-0.7524,-0.7568,-0.7535,-0.7582,-0.7614,-0.7598,-0.7659,-0.7674,-0.7708,-0.7776,-0.7808,-0.7792,-0.7915,-0.7877,-0.7883,-0.7887,-0.7926,-0.7938,-0.7949,-0.7808,-0.7808,-0.7807,0,0,-0.748,-0.7501,-0.7553,-0.7576,-0.7609,-0.7618,-0.763,-0.7661,-0.7671,-0.7731,-0.772,-0.7759,-0.7829,-0.7854,-0.7876,-0.7963,-0.7954,-0.7976,-0.802,-0.806,-0.807,-0.8079,-0.8112,-0.8123,-0.7983,-0.7983,-0.7983,0,-0.7516,-0.758,-0.7581,-0.7629,-0.7653,-0.7639,-0.7693,-0.7714,-0.7759,-0.7777,-0.7758,-0.7846,-0.7868,-0.7942,-0.7964,-0.7981,-0.7996,-0.7973,-0.8069,-0.8078,-0.8086,-0.8117,-0.8129,-0.7986,-0.7986,-0.7985,-0.7985,0,-0.7622,-0.7667,-0.7705,-0.7748,-0.7776,-0.7826,-0.7836,-0.7864,-0.7861,-0.7872,-0.7934,-0.7959,-0.8004,-0.8021,-0.8019,-0.8096,-0.8085,-0.8067,-0.8034,-0.8101,-0.813,-0.8142,-0.799,-0.7989,-0.7988,-0.7987,0,0,-0.7725,-0.7767,-0.7781,-0.7801,-0.7836,-0.7871,-0.792,-0.7963,-0.7988,-0.8018,-0.8061,-0.8121,-0.8104,-0.8129,-0.813,-0.8164,-0.8234,-0.8143,-0.8144,-0.816,-0.832,-0.8335,-0.8349,-0.8226,-0.8229,-0.823,-0.8318,0,-0.7809,-0.7896,-0.7898,-0.7978,-0.802,-0.8007,-0.805,-0.8077,-0.8088,-0.8125,-0.8137,-0.818,-0.8154,-0.8169,-0.8203,-0.8218,-0.8266,-0.8212,-0.8267,-0.8269,-0.8261,-0.8364,-0.8379,-0.8461,-0.8329,-0.8331,-0.8333,0,-0.7919,-0.7953,-0.8037,-0.8066,-0.8083,-0.8122,-0.8162,-0.8197,-0.8227,-0.8232,-0.8259,-0.8255,-0.8306,-0.8269,-0.8341,-0.8303,-0.8326,-0.8337,-0.834,-0.8347,-0.8307,-0.8375,-0.8487,-0.85,-0.8351,-0.8349,-0.8348,0,-0.7987,-0.8054,-0.8113,-0.813,-0.8165,-0.8192,-0.8208,-0.8236,-0.8261,-0.8295,-0.8312,-0.8352,-0.8374,-0.8405,-0.8411,-0.8384,-0.8483,-0.8447,-0.849,-0.849,-0.8513,-0.8512,-0.8632,-0.8525,-0.8525,-0.8524,-0.8524,0,-0.8082,-0.8134,-0.8144,-0.8181,-0.8239,-0.8241,-0.8298,-0.8312,-0.8337,-0.8376,-0.8366,-0.8404,-0.8409,-0.8447,-0.8452,-0.8511,-0.8521,-0.8528,-0.8529,-0.853,-0.8529,-0.8546,-0.8541,-0.8528,-0.8527,-0.8526,-0.8526,0,-0.8169,-0.8178,-0.8242,-0.8269,-0.8277,-0.8319,-0.8343,-0.8378,-0.8387,-0.8437,-0.8449,-0.8464,-0.8509,-0.8518,-0.8571,-0.8574,-0.8645,-0.8639,-0.8635,-0.8635,-0.8678,-0.8675,-0.8815,-0.8834,-0.8712,-0.8714,-0.8715,0,-0.823,-0.827,-0.8302,-0.8327,-0.8344,-0.8385,-0.8411,-0.8413,-0.8441,-0.8477,-0.8508,-0.8552,-0.8587,-0.8659,-0.8676,-0.8716,-0.8713,-0.8759,-0.8719,-0.8719,-0.8715,-0.8714,-0.8718,-0.8767,-0.8769,-0.877,-0.8771,0,-0.8338,-0.834,-0.8377,-0.8415,-0.8446,-0.8477,-0.8506,-0.8527,-0.8534,-0.8565,-0.861,-0.8638,-0.8691,-0.8735,-0.8776,-0.8792,-0.8784,-0.8783,-0.8795,-0.8798,-0.8794,-0.8798,-0.8658,-0.878,-0.8779,-0.8778,-0.8778,-0.8778,-0.8415,-0.845,-0.8478,-0.8519,-0.8541,-0.8568,-0.8603,-0.8616,-0.8654,-0.8698,-0.8697,-0.8747,-0.8775,-0.8828,-0.8847,-0.8887,-0.8873,-0.889,-0.8895,-0.89,-0.8905,-0.8786,-0.8894,-0.8894,-0.8894,-0.8893,-0.8893,0,-0.8523,-0.854,-0.8578,-0.8619,-0.8652,-0.8638,-0.867,-0.8698,-0.8742,-0.8769,-0.8804,-0.8856,-0.8898,-0.8917,-0.8959,-0.8987,-0.8984,-0.8998,-0.8997,-0.9001,-0.8915,-0.89,-0.9,-0.9,-0.9,-0.9,-0.9,-0.9,-0.8584,-0.8643,-0.8648,-0.8717,-0.8734,-0.8783,-0.8802,-0.8827,-0.8848,-0.8907,-0.8942,-0.8953,-0.8977,-0.902,-0.9059,-0.9063,-0.908,-0.9096,-0.9099,-0.9018,-0.9007,-0.8997,-0.8984,-0.9099,-0.9099,-0.9182,-0.9183,-0.9184]},{"header":{"parameterUnit":"m.s-1","parameterCategory":1,"la1":30.2991,"la2":30.254,"lo1":-89.0895,"lo2":-89.0444,"dy":0.0017,"dx":0.0017,"nx":28,"ny":28,"refTime":"2023-10-07T03:00:00:Z","depth":0,"parameterNumber":3,"parameterNumberName":"V-component_of_WINDS"},"data":[0,0,0,0,0,0,0,0,0,0,0,0,0,0,0,0,0,0,0,0,0,0,0,0,0,0,0,0,0,0,0,0,0,0,0,0,0,0,0,0,0,0,0,0,0,0,0,0,0,0,0,0,0,0,0,0,0,0,-5.9768,-5.9769,0,-5.9877,-5.9878,-5.9879,-5.9796,-5.9792,-5.9789,-5.9785,-5.9891,-5.9897,-5.9903,0,0,0,0,0,0,0,0,0,0,0,0,0,-5.9482,-5.9488,-5.9768,-5.9769,-5.977,-5.9877,-5.9878,-5.9879,-5.9796,-5.9792,-5.9788,-5.9784,-5.9889,-5.9897,-5.9904,0,0,0,0,0,0,0,0,0,0,0,0,0,-5.96,-5.949,-5.9767,-5.9742,-5.9741,-5.9876,-5.9878,-5.988,-5.9797,-5.9792,-5.9787,-5.9782,-5.9887,-5.9896,-5.9905,-6.007,0,0,-5.9933,-5.9937,0,0,0,0,0,0,0,0,-5.9594,-5.9611,-5.9744,-5.9744,-5.9743,-5.9817,-5.9816,-5.9943,-5.9799,-5.9776,-5.9785,-5.9779,-5.9871,-5.9881,-5.9913,-6.0075,-6.0079,-5.9934,-5.994,-5.9944,-5.9946,0,0,0,0,0,0,0,-5.9585,-5.9605,-5.981,-5.9746,-5.9745,-5.9723,-5.9734,-5.984,-5.9852,-5.9777,-5.9772,-5.9786,-5.9869,-5.9904,-5.9915,-6.0081,-5.9934,-5.9942,-5.9948,-5.9951,-6.0384,-6.0389,0,0,0,0,0,0,-5.9581,-5.9599,-5.9807,-5.9814,-5.9654,-5.9733,-5.9745,-5.9799,-5.9851,-5.9853,-5.979,-5.9782,-5.9891,-5.9904,-5.9918,-6.0115,-5.9944,-5.9952,-5.9958,-6.0378,-6.0385,-6.0391,0,0,0,0,0,0,-5.9575,-5.96,-5.9803,-5.9705,-5.9729,-5.9743,-5.9805,-5.9804,-5.9839,-5.9861,-5.9862,-5.9825,-5.9887,-5.9905,-6.0033,-6.0118,-5.9957,-5.9965,-6.0371,-6.038,-6.0388,-6.051,0,0,0,0,0,0,-5.9567,-5.9598,-5.9662,-5.9707,-5.9735,-5.9918,-5.981,-5.981,-5.9856,-5.9845,-5.9893,-5.9895,-5.9885,-6.002,-6.0043,-6.0128,-5.9972,-6.0363,-6.0375,-6.0385,-6.0499,-6.0522,-6.0542,0,0,0,0,0,-5.9557,-5.9691,-5.9666,-5.9692,-5.9816,-5.9923,-5.9938,-5.9925,-5.9863,-5.9927,-5.994,-5.9894,-6.0105,-6.0034,-6.0058,-6.0148,-6.0358,-6.0371,-6.0384,-6.0489,-6.0518,-6.0542,0,0,0,0,0,0,-5.9653,-5.9696,-5.9669,-5.9822,-5.987,-5.9909,-5.9989,-5.9956,-6.002,-6.0008,-5.9986,-5.9998,-6.0132,-6.0152,-6.0072,-6.031,-6.0221,-6.024,-6.0292,-6.0319,-6.0341,-6.0333,-5.998,0,0,0,0,0,-5.9693,-5.9778,-5.981,-5.9942,-5.9968,-5.9975,-6.0021,-6.0006,-6.0054,-6.0073,-6.0096,-6.0143,-6.0219,-6.027,-6.0342,-6.0501,-6.051,-6.0574,-6.0596,-6.0614,-6.063,-6.0716,-6.0745,-6.0435,-6.0435,-6.0435,0,0,-5.9774,-5.9809,-5.9863,-5.9963,-5.9998,-6.0085,-5.9992,-6.0088,-6.0152,-6.0087,-6.021,-6.0229,-6.0279,-6.0424,-6.0488,-6.0444,-6.0718,-6.0631,-6.0645,-6.0652,-6.0733,-6.0762,-6.0788,-6.0444,-6.0442,-6.0441,0,0,-5.9968,-6.0003,-6.0117,-6.0155,-6.021,-6.0214,-6.0241,-6.0286,-6.0296,-6.042,-6.0373,-6.0448,-6.058,-6.0619,-6.0655,-6.0865,-6.0824,-6.0888,-6.1002,-6.1086,-6.111,-6.1132,-6.1207,-6.1234,-6.0904,-6.0905,-6.0905,0,-6.0062,-6.0194,-6.0179,-6.028,-6.0325,-6.0271,-6.0386,-6.0422,-6.0498,-6.0529,-6.0479,-6.0645,-6.0675,-6.0828,-6.088,-6.0911,-6.0941,-6.0883,-6.1108,-6.113,-6.115,-6.1221,-6.1249,-6.0912,-6.0911,-6.0911,-6.091,0,-6.0307,-6.0399,-6.0484,-6.0561,-6.0615,-6.0722,-6.0722,-6.0778,-6.0759,-6.0768,-6.0894,-6.0928,-6.1006,-6.1041,-6.1023,-6.1192,-6.1163,-6.1112,-6.1022,-6.1187,-6.1254,-6.1281,-6.0923,-6.092,-6.0918,-6.0916,0,0,-6.0565,-6.0633,-6.0664,-6.0699,-6.0756,-6.0826,-6.093,-6.1009,-6.1057,-6.1111,-6.1197,-6.1311,-6.1264,-6.1306,-6.1291,-6.1364,-6.1528,-6.1303,-6.1304,-6.1344,-6.1717,-6.1756,-6.1788,-6.1502,-6.1507,-6.1511,-6.1713,0,-6.0762,-6.0946,-6.0935,-6.1107,-6.1192,-6.1143,-6.1233,-6.1278,-6.1289,-6.1361,-6.1371,-6.1453,-6.1384,-6.1409,-6.148,-6.1494,-6.1603,-6.1479,-6.1581,-6.1585,-6.1571,-6.1823,-6.1865,-6.2054,-6.1739,-6.1743,-6.1747,0,-6.1016,-6.1081,-6.1263,-6.1308,-6.1343,-6.1425,-6.1497,-6.1567,-6.1615,-6.1618,-6.1666,-6.1639,-6.1742,-6.165,-6.1793,-6.1709,-6.1749,-6.1763,-6.177,-6.1779,-6.1676,-6.184,-6.2114,-6.2142,-6.1787,-6.1784,-6.1781,0,-6.1187,-6.1319,-6.1445,-6.1476,-6.1532,-6.1591,-6.1616,-6.166,-6.1708,-6.177,-6.18,-6.1872,-6.1912,-6.1968,-6.1961,-6.1894,-6.2106,-6.2013,-6.211,-6.2111,-6.2157,-6.2154,-6.2442,-6.2183,-6.2183,-6.2182,-6.2181,0,-6.1408,-6.1521,-6.1523,-6.16,-6.1725,-6.1711,-6.1834,-6.1853,-6.1892,-6.1971,-6.1932,-6.2007,-6.1993,-6.2067,-6.2062,-6.2181,-6.2198,-6.2203,-6.22,-6.2207,-6.2206,-6.2233,-6.222,-6.219,-6.2188,-6.2186,-6.2185,0,-6.162,-6.1625,-6.1759,-6.1802,-6.1816,-6.1906,-6.1941,-6.2014,-6.2022,-6.2122,-6.2145,-6.2157,-6.2242,-6.2241,-6.2337,-6.2333,-6.248,-6.2461,-6.2464,-6.2461,-6.2558,-6.2549,-6.2874,-6.2916,-6.2629,-6.2632,-6.2634,0,-6.1761,-6.1847,-6.19,-6.1952,-6.1982,-6.2064,-6.2114,-6.2103,-6.2156,-6.2218,-6.2283,-6.2366,-6.2431,-6.2569,-6.2585,-6.2659,-6.2642,-6.2751,-6.2653,-6.2658,-6.2645,-6.264,-6.2649,-6.277,-6.2774,-6.2776,-6.2778,0,-6.2012,-6.201,-6.2084,-6.216,-6.2221,-6.2279,-6.2333,-6.2376,-6.2371,-6.2432,-6.252,-6.2571,-6.2671,-6.2753,-6.2824,-6.2848,-6.2813,-6.2809,-6.2836,-6.2844,-6.2842,-6.2845,-6.2517,-6.2802,-6.2799,-6.2798,-6.2797,-6.2796,-6.2193,-6.2267,-6.2317,-6.24,-6.244,-6.2491,-6.2562,-6.258,-6.2654,-6.2736,-6.2724,-6.2822,-6.2868,-6.2961,-6.2991,-6.3067,-6.3029,-6.3067,-6.3077,-6.3086,-6.3098,-6.283,-6.308,-6.3079,-6.3078,-6.3078,-6.3077,0,-6.2442,-6.2471,-6.2549,-6.2626,-6.2692,-6.2655,-6.2712,-6.2769,-6.2857,-6.2904,-6.297,-6.3071,-6.3151,-6.3174,-6.325,-6.3306,-6.3292,-6.3327,-6.3322,-6.3329,-6.3127,-6.3097,-6.3337,-6.3337,-6.3337,-6.3337,-6.3337,-6.3337,-6.2579,-6.2704,-6.2709,-6.2852,-6.288,-6.2978,-6.3014,-6.3061,-6.3099,-6.3214,-6.3281,-6.3296,-6.3333,-6.3412,-6.3483,-6.3487,-6.3517,-6.3559,-6.3557,-6.3369,-6.3343,-6.3318,-6.329,-6.3566,-6.3566,-6.3752,-6.3754,-6.3755]}]]